STARLINK-11230 [DTC]

Last updated on Fri Oct 04 2024 00:02:04 GMT+0000 (Coordinated Universal Time)

1 61053U 24164D 24277.50093564 .00031853 00000+0 19776-3 0 9998 2 61053 53.1572 6.1869 0001152 79.9028 280.2123 15.76742886 3391
UTC large
Height (km)
Speed (km/s)
/
Latitude / Longitude
Inclination (degrees)
Orbital Period (minutes)
Azimuth
Elevation
Range (km)
Doppler Factor

Next 0 passes for location: London (51.5072 / 0.1276)

Sorry there are no passes over London.